Zurück zum Katalog

STARLINK-6224

AktivKommunikationVLEO
NORAD 56425·PAYLOAD·🇺🇸 United States

Gestartet May 4, 2023 von Cape Canaveral Space Force Station

Loading…

Nächste Überflüge (nächste 24 Stunden)

TLE

AktuellSource: CelesTrak SupGP

Epoche: Sep 15, 2026, 02:36 UTC

1 56425C 23061BD  26258.10881944 -.00019485  00000+0 -70585-3 0  2586
2 56425  43.0007 189.9499 0001509 271.2294 221.3108 15.27583561    10

Verfolge STARLINK-6224 in Echtzeit mit AllMySat

Download on the App Store